Regional Weather Roundup
Issued by NWS Sterling, VA

Current Version | Previous Version | Text Only | Print | Product List | Glossary On
Versions: 1 2 3 4 5 6 7 8 9 10 11 12 13 14 15 16 17 18 19 20 21 22 23 24 25 26 27
000
ASUS41 KLWX 230811
RWRLWX

REGIONAL WEATHER ROUNDUP
NATIONAL WEATHER SERVICE BALTIMORE MD/WASHINGTON DC
300 AM EST TUE JAN 23 2018

Note: "FAIR" indicates few or no clouds below 12,000 feet
with no significant weather and/or obstructions to visibility.
 TC=TEMPERATURE CELSIUS

 * =Non NWS site. Station does not report precipitation (e.g. rain,
    snow, etc.), thunder, or fog.

DCZ001-MDZ009-015-VAZ040>042-051-053>054-230900-
WASHINGTON METRO

CITY           SKY/WX    TMP DP  RH WIND       PRES   REMARKS
WASHINGTON NAT CLOUDY    53  47  79 S10       29.82F
DULLES         CLOUDY    54  48  80 S8        29.80F
ANDREWS AFB    CLOUDY    55  49  80 SE12      29.82F
FT BELVOIR     CLOUDY    54  47  76 SE7       29.82F
COLLEGE PARK*  CLOUDY    53  46  75 SE5       29.82F
LEESBURG*      CLOUDY    55  46  71 S6        29.80F
MANASSAS*      LGT RAIN  55  49  80 S8        29.81F
GAITHERSBURG*  CLOUDY    54  47  77 S9        29.81F

$$

MDZ006>007-011-014-230900-
BALTIMORE METRO

CITY           SKY/WX    TMP DP  RH WIND       PRES   REMARKS
BWI AIRPORT    CLOUDY    48  43  82 E7        29.82F
MD SCIENCE CTR   N/A     49  42  77 MISG      29.84F
MARTIN STATE   CLOUDY    45  43  93 SE3       29.86F
ANNAPOLIS      CLOUDY    49  45  86 S7        29.85F
FORT MEADE*    MOCLDY    48  43  81 SE7       29.84F

$$

MDZ012-015-019>023-230900-
MARYLAND EASTERN SHORE

CITY           SKY/WX    TMP DP  RH WIND       PRES   REMARKS
OCEAN CITY     MOCLDY    45  45 100 VRB3      29.95F
SALISBURY      FAIR      54  51  90 S9        29.91F
BAY BRIDGE AP* CLOUDY    48  45  87 SE10      29.85F
CAMBRIDGE*     CLOUDY    52  48  87 S9        29.88F
EASTON*        MOCLDY    55  50  82 S13       29.90F

$$

MDZ017>025-230900-
SOUTHERN MARYLAND

CITY           SKY/WX    TMP DP  RH WIND       PRES   REMARKS
PATUXENT RIVER NOT AVBL
ST INIGOES     MOCLDY    53  49  86 SE9       29.86F
LEONARDTOWN*   CLOUDY    54  52  94 SE6       29.86F

$$

MDZ003>005-230900-
NORTH CENTRAL MARYLAND

CITY           SKY/WX    TMP DP  RH WIND       PRES   REMARKS
FREDERICK*     CLOUDY    54  41  62 CALM      29.81F
HAGERSTOWN APT CLOUDY    52  45  77 SE8       29.74F
WESTMINSTER*   CLOUDY    48  45  87 SE10      29.78F

$$

MDZ501>502-230900-
WESTERN MARYLAND

CITY           SKY/WX    TMP DP  RH WIND       PRES   REMARKS
OAKLAND*       FAIR      50  43  76 S16       29.66S
CUMBERLAND*    CLOUDY    50  43  76 NW3       29.74F

$$

VAZ025>031-230900-
SHENANDOAH VALLEY

CITY           SKY/WX    TMP DP  RH WIND       PRES   REMARKS
WINCHESTER*    LGT RAIN  52  43  71 SE9       29.77S
FRONT ROYAL*   CLOUDY    54  45  71 MISG      29.75F
LURAY*         RAIN      52  50  93 SW10G16   29.77R
NEW MARKET*    CLOUDY    51  48  90 W13G18    29.77R
STAUNTON*      HVY RAIN  51  50  95 S9        29.80R
WAYNESBORO*    CLOUDY    53  52  96 S10G20    29.79R

$$

WVZ021-048>050-054>055-230900-
EASTERN WEST VIRGINIA PANHANDLE

CITY           SKY/WX    TMP DP  RH WIND       PRES   REMARKS
MARTINSBURG    CLOUDY    54  46  74 S10       29.73F
PETERSBURG*    FAIR      54  46  72 S10       29.70F

$$

VAZ036>039-050-230900-
CENTRAL FOOTHILLS

CITY           SKY/WX    TMP DP  RH WIND       PRES   REMARKS
CHARLOTTESVILL LGT RAIN  53  46  77 S7        29.80F
CULPEPER*      CLOUDY    53  45  75 CALM      29.82F
ORANGE*        CLOUDY    52  45  76 CALM      29.81F
GORDONSVILLE*  CLOUDY    54  49  83 SW3       29.80F
WARRENTON*     LGT RAIN  55  47  75 CALM      29.80F

$$

VAZ055>057-230900-
NORTH AND CENTRAL PIEDMONT

CITY           SKY/WX    TMP DP  RH WIND       PRES   REMARKS
FREDERICKSBRG* CLOUDY    56  53  87 S8        29.82S
STAFFORD*      CLOUDY    57  53  88 S7        29.86F

$$

NCZ024-NYZ072-PAZ021-071-VAZ022-071-230900-
OTHER REGIONAL OBSERVATIONS

CITY           SKY/WX    TMP DP  RH WIND       PRES   REMARKS
NEW YORK CITY  CLOUDY    39  38  96 CALM      29.98F FOG
PHILADELPHIA   MOCLDY    50  43  77 S8        29.90F
PITTSBURGH     LGT RAIN  50  46  86 W10G21    29.63R
ROANOKE        CLOUDY    51  50  96 SE8       29.77F
RICHMOND       CLOUDY    58  55  90 S16       29.85F
RALEIGH        LGT RAIN  62  59  90 S21G32    29.86F

$$

ANZ530>537-230900-
MARINE OBSERVATIONS

STATION/POSITION TIME  TEMP    WIND        PRES
                       AIR SEA DIR/SP/G
                 (UTC) (F)     (DEG/KT/KT) (MB)
THOMAS PT LIGHT  0800   41 34  180/  8/  9   N/A
BALT KEY BRIDGE  0742   45     100/  6/  7 1010.9F
COVE POINT       0742   41     190/ 14/ 15 1012.3F
LEWISETTA        0736   54 38  190/ 12/ 14 1011.4F
SOLOMONS ISLAND  0742   40 35  120/ 10/ 13 1011.1F
PINEY POINT      0748          150/ 14/ 14   N/A

$$





USA.gov is the U.S. government's official web portal to all federal, state and local government web resources and services.